TimeCST,TemperatureF,Dew PointF,Humidity,Sea Level PressureIn,VisibilityMPH,Wind Direction,Wind SpeedMPH,Gust SpeedMPH,PrecipitationIn,Events,Conditions,WindDirDegrees,DateUTC
12:15 AM,15.8,14.0,93,30.21,10.0,SSE,11.5,-,N/A,,Clear,150,2013-11-29 06:15:00
12:35 AM,15.8,14.0,93,30.21,10.0,SSE,10.4,-,N/A,,Clear,150,2013-11-29 06:35:00
12:55 AM,15.8,14.0,93,30.20,10.0,SE,10.4,-,N/A,,Clear,140,2013-11-29 06:55:00
1:15 AM,15.8,12.2,86,30.19,10.0,SE,10.4,-,N/A,,Clear,130,2013-11-29 07:15:00
1:35 AM,15.8,12.2,86,30.18,10.0,SE,11.5,-,N/A,,Clear,140,2013-11-29 07:35:00
1:55 AM,15.8,12.2,86,30.16,10.0,SE,12.7,-,N/A,,Clear,140,2013-11-29 07:55:00
2:15 AM,15.8,12.2,86,30.16,10.0,SE,11.5,-,N/A,,Clear,140,2013-11-29 08:15:00
2:35 AM,15.8,12.2,86,30.15,10.0,SE,11.5,-,N/A,,Clear,140,2013-11-29 08:35:00
2:55 AM,15.8,14.0,93,30.14,10.0,SE,13.8,-,N/A,,Clear,140,2013-11-29 08:55:00
3:15 AM,15.8,14.0,93,30.13,10.0,SE,12.7,-,N/A,,Clear,140,2013-11-29 09:15:00
3:35 AM,15.8,14.0,93,30.13,10.0,SE,11.5,-,N/A,,Clear,140,2013-11-29 09:35:00
3:55 AM,15.8,14.0,93,30.12,10.0,SE,11.5,-,N/A,,Clear,140,2013-11-29 09:55:00
4:15 AM,15.8,14.0,93,30.10,10.0,SE,13.8,-,N/A,,Clear,140,2013-11-29 10:15:00
4:35 AM,15.8,14.0,93,30.10,10.0,SE,10.4,-,N/A,,Clear,140,2013-11-29 10:35:00
4:55 AM,15.8,14.0,93,30.10,10.0,SSE,12.7,-,N/A,,Clear,150,2013-11-29 10:55:00
5:15 AM,17.6,14.0,86,30.10,10.0,SE,10.4,-,N/A,,Clear,140,2013-11-29 11:15:00
5:35 AM,15.8,14.0,93,30.09,10.0,SE,8.1,-,N/A,,Clear,140,2013-11-29 11:35:00
5:55 AM,15.8,14.0,93,30.07,10.0,SSE,10.4,-,N/A,,Mostly Cloudy,160,2013-11-29 11:55:00
6:15 AM,17.6,14.0,86,30.07,10.0,SE,8.1,-,N/A,,Overcast,140,2013-11-29 12:15:00
6:35 AM,17.6,15.8,93,30.06,10.0,SSE,11.5,-,N/A,,Overcast,160,2013-11-29 12:35:00
6:55 AM,17.6,15.8,93,30.06,10.0,SSE,9.2,-,N/A,,Overcast,160,2013-11-29 12:55:00
7:15 AM,17.6,15.8,93,30.05,10.0,SSE,8.1,-,N/A,,Overcast,160,2013-11-29 13:15:00
7:35 AM,19.4,15.8,86,30.05,10.0,South,10.4,-,N/A,,Overcast,180,2013-11-29 13:35:00
7:55 AM,19.4,15.8,86,30.05,10.0,South,10.4,-,N/A,,Overcast,180,2013-11-29 13:55:00
8:15 AM,19.4,15.8,86,30.03,10.0,South,12.7,-,N/A,,Overcast,170,2013-11-29 14:15:00
8:35 AM,19.4,17.6,93,30.03,10.0,South,10.4,-,N/A,,Overcast,170,2013-11-29 14:35:00
8:55 AM,19.4,17.6,93,30.01,10.0,South,15.0,-,N/A,,Overcast,170,2013-11-29 14:55:00
9:15 AM,19.4,17.6,93,30.02,9.0,South,13.8,17.3,N/A,,Overcast,180,2013-11-29 15:15:00
9:35 AM,19.4,17.6,93,30.03,10.0,South,8.1,-,N/A,,Overcast,190,2013-11-29 15:35:00
9:55 AM,21.2,19.4,93,30.03,10.0,South,8.1,-,N/A,,Overcast,190,2013-11-29 15:55:00
10:15 AM,21.2,19.4,93,30.02,9.0,SSW,10.4,-,N/A,,Overcast,200,2013-11-29 16:15:00
10:35 AM,23.0,19.4,86,30.01,9.0,South,12.7,-,N/A,,Overcast,190,2013-11-29 16:35:00
10:55 AM,23.0,19.4,86,30.02,9.0,South,10.4,-,N/A,,Overcast,190,2013-11-29 16:55:00
11:15 AM,23.0,21.2,93,30.01,10.0,SSW,8.1,-,N/A,,Mostly Cloudy,200,2013-11-29 17:15:00
11:35 AM,24.8,23.0,93,30.01,10.0,SSW,9.2,-,N/A,,Mostly Cloudy,210,2013-11-29 17:35:00
11:55 AM,26.6,23.0,86,29.99,10.0,South,8.1,-,N/A,,Partly Cloudy,190,2013-11-29 17:55:00
12:15 PM,30.2,23.0,75,29.97,10.0,SSW,9.2,-,N/A,,Partly Cloudy,210,2013-11-29 18:15:00
12:35 PM,32.0,23.0,69,29.97,10.0,South,6.9,-,N/A,,Clear,180,2013-11-29 18:35:00
12:55 PM,32.0,23.0,69,29.95,10.0,South,10.4,-,N/A,,Clear,190,2013-11-29 18:55:00
1:15 PM,32.0,23.0,69,29.96,10.0,SSW,10.4,-,N/A,,Clear,200,2013-11-29 19:15:00
1:35 PM,33.8,24.8,70,29.95,10.0,SW,6.9,-,N/A,,Clear,220,2013-11-29 19:35:00
1:55 PM,35.6,24.8,65,29.95,10.0,SW,6.9,-,N/A,,Clear,220,2013-11-29 19:55:00
2:15 PM,37.4,24.8,60,29.95,10.0,West,5.8,-,N/A,,Clear,270,2013-11-29 20:15:00
2:35 PM,37.4,24.8,60,29.95,10.0,West,6.9,-,N/A,,Clear,280,2013-11-29 20:35:00
2:55 PM,37.4,23.0,56,29.94,10.0,West,4.6,-,N/A,,Clear,270,2013-11-29 20:55:00
3:15 PM,39.2,24.8,56,29.94,10.0,West,5.8,-,N/A,,Clear,270,2013-11-29 21:15:00
3:35 PM,39.2,24.8,56,29.94,10.0,WSW,5.8,-,N/A,,Clear,240,2013-11-29 21:35:00
3:55 PM,39.2,24.8,56,29.94,10.0,Calm,Calm,-,N/A,,Clear,0,2013-11-29 21:55:00
4:15 PM,39.2,24.8,56,29.94,10.0,WSW,4.6,-,N/A,,Clear,240,2013-11-29 22:15:00
4:35 PM,37.4,24.8,60,29.95,10.0,West,4.6,-,N/A,,Clear,280,2013-11-29 22:35:00
4:55 PM,35.6,23.0,60,29.95,10.0,Calm,Calm,-,N/A,,Clear,0,2013-11-29 22:55:00
5:15 PM,35.6,24.8,65,29.95,10.0,Calm,Calm,-,N/A,,Clear,0,2013-11-29 23:15:00
5:35 PM,35.6,24.8,65,29.95,10.0,Calm,Calm,-,N/A,,Clear,0,2013-11-29 23:35:00
5:55 PM,32.0,23.0,69,29.96,10.0,NW,3.5,-,N/A,,Clear,310,2013-11-29 23:55:00
6:15 PM,32.0,23.0,69,29.97,10.0,NNW,5.8,-,N/A,,Clear,330,2013-11-30 00:15:00
6:35 PM,32.0,23.0,69,29.98,10.0,NNW,5.8,-,N/A,,Clear,340,2013-11-30 00:35:00
6:55 PM,32.0,23.0,69,29.98,10.0,NNW,5.8,-,N/A,,Clear,340,2013-11-30 00:55:00
7:15 PM,30.2,23.0,75,29.98,10.0,North,6.9,-,N/A,,Clear,10,2013-11-30 01:15:00
7:35 PM,30.2,23.0,75,29.98,10.0,North,6.9,-,N/A,,Clear,360,2013-11-30 01:35:00
7:55 PM,28.4,23.0,80,29.98,10.0,North,5.8,-,N/A,,Clear,350,2013-11-30 01:55:00
8:15 PM,26.6,23.0,86,29.99,10.0,NNW,5.8,-,N/A,,Clear,340,2013-11-30 02:15:00
8:35 PM,28.4,23.0,80,29.99,10.0,NW,5.8,-,N/A,,Clear,320,2013-11-30 02:35:00
8:55 PM,26.6,23.0,86,29.98,10.0,WNW,3.5,-,N/A,,Clear,300,2013-11-30 02:55:00
9:15 PM,24.8,19.4,80,29.98,10.0,West,5.8,-,N/A,,Partly Cloudy,270,2013-11-30 03:15:00
9:35 PM,24.8,19.4,80,29.98,10.0,West,4.6,-,N/A,,Scattered Clouds,270,2013-11-30 03:35:00
9:55 PM,23.0,19.4,86,29.99,10.0,WNW,8.1,-,N/A,,Partly Cloudy,290,2013-11-30 03:55:00
10:15 PM,24.8,19.4,80,29.99,10.0,West,6.9,-,N/A,,Clear,270,2013-11-30 04:15:00
10:35 PM,23.0,19.4,86,29.99,10.0,West,6.9,-,N/A,,Clear,270,2013-11-30 04:35:00
10:55 PM,23.0,19.4,86,30.00,10.0,West,5.8,-,N/A,,Clear,280,2013-11-30 04:55:00
11:15 PM,23.0,19.4,86,30.00,10.0,West,4.6,-,N/A,,Clear,270,2013-11-30 05:15:00
11:35 PM,24.8,21.2,86,30.00,10.0,WNW,6.9,-,N/A,,Clear,300,2013-11-30 05:35:00
11:55 PM,26.6,23.0,86,30.01,10.0,NW,5.8,-,N/A,,Clear,310,2013-11-30 05:55:00